Fairfield, CA

10:35 AM PST on November 21, 2017 (GMT -0800)
Travis Air Force Base

Weather History for KSUU - May, 2014

Change the Weather History Date:

Thursday, May 8, 2014

  Actual Average Record
Temperature  
Mean Temperature 59 °F -  
Max Temperature 67 °F 72 °F 96 °F (2001)
Min Temperature 52 °F 47 °F 40 °F (2015)
Degree Days  
Heating Degree Days 6    
Growing Degree Days 9 (Base 50)    
Moisture  
Dew Point 57 °F    
Average Humidity 88    
Maximum Humidity 100    
Minimum Humidity 60    
Precipitation  
Precipitation 0.00 in - - ()
Sea Level Pressure  
Sea Level Pressure 30.02 in    
Wind  
Wind Speed 18 mph (WSW)    
Max Wind Speed 24 mph    
Max Gust Speed 31 mph    
Visibility 10 miles    
Events      
Averages and records for this station are not official NWS values.
T = Trace of Precipitation, MM = Missing Value Source: NWS Daily Summary

Daily Weather History Graph

Daily Weather History Graph

Search for Another Location

Airport or City:

Trip Planner

Search our weather history database for the weather conditions in past years. The results will help you decide how hot, cold, wet, or windy it might be!

Date:

Astronomy

May. 08, 2014 Rise Set
Actual Time 6:03 AM PDT 8:05 PM PDT
Civil Twilight 5:34 AM PDT 8:34 PM PDT
Nautical Twilight 4:58 AM PDT 9:10 PM PDT
Astronomical Twilight 4:20 AM PDT 9:48 PM PDT
Moon 2:16 PM PDT (5/8) 2:31 AM PDT (5/8)
Length of Visible Light 15h 00m
Length of Day
14h 02m
Waxing Gibbous, 66% of the Moon is Illuminated
May 8
Waxing Gibbous
May 14
Full
May 21
Last Quarter
May 28
New
Jun 5
First Quarter

Hourly Weather History & Observations

Time (PDT) Temp. Dew Point Humidity Pressure Visibility Wind Dir Wind Speed Gust Speed Precip Events Conditions
12:58 AM 55.2 °F 53.1 °F 92% 29.96 in 10.0 mi SW 16.1 mph - N/A   Clear
1:58 AM 54.5 °F 53.8 °F 97% 29.96 in 10.0 mi SW 17.3 mph - N/A   Clear
2:58 AM 53.6 °F 51.8 °F 94% 29.95 in 10.0 mi SW 21.9 mph - N/A   Partly Cloudy
3:58 AM 53.8 °F 52.5 °F 95% 29.95 in 10.0 mi SW 18.4 mph - N/A   Mostly Cloudy
4:58 AM 53.2 °F 50.4 °F 90% 29.95 in 10.0 mi WSW 24.2 mph 28.8 mph N/A   Overcast
5:58 AM 52.0 °F 48.7 °F 89% 29.96 in 10.0 mi SW 20.7 mph - N/A   Clear
6:58 AM 52.9 °F 48.9 °F 86% 29.97 in 10.0 mi SW 20.7 mph - N/A   Clear
7:58 AM 56.3 °F 46.8 °F 70% 30.00 in 10.0 mi WSW 18.4 mph 24.2 mph N/A   Clear
8:58 AM 58.3 °F 45.7 °F 63% 30.02 in 10.0 mi WSW 23.0 mph 31.1 mph N/A   Clear
9:58 AM 61.2 °F 47.3 °F 60% 30.04 in 10.0 mi WSW 18.4 mph - N/A   Clear
10:58 AM 63.1 °F 52.9 °F 69% 30.05 in 10.0 mi WSW 18.4 mph - N/A   Scattered Clouds
11:58 AM 63.0 °F 56.8 °F 80% 30.05 in 10.0 mi SW 19.6 mph 24.2 mph N/A   Mostly Cloudy
12:58 PM 63.7 °F 57.7 °F 81% 30.05 in 10.0 mi SW 18.4 mph 29.9 mph N/A   Mostly Cloudy
1:58 PM 66.9 °F 57.7 °F 72% 30.05 in 10.0 mi SW 17.3 mph 24.2 mph N/A   Mostly Cloudy
2:03 PM 66.2 °F 57.2 °F 73% 30.03 in 10.0 mi WSW 19.6 mph 25.3 mph N/A   Mostly Cloudy
2:58 PM 65.7 °F 57.0 °F 74% 30.05 in 10.0 mi WSW 18.4 mph - N/A   Mostly Cloudy
3:03 PM 66.2 °F 57.2 °F 73% 30.03 in 10.0 mi WSW 12.7 mph - N/A   Mostly Cloudy
3:08 PM 66.2 °F 57.2 °F 73% 30.03 in 10.0 mi WSW 16.1 mph 20.7 mph N/A   Mostly Cloudy
3:58 PM 65.1 °F 58.1 °F 78% 30.04 in 10.0 mi SW 18.4 mph 23.0 mph N/A   Overcast
4:58 PM 64.4 °F 58.5 °F 81% 30.04 in 10.0 mi WSW 16.1 mph 24.2 mph N/A   Mostly Cloudy
5:18 PM 64.4 °F 59.0 °F 83% 30.02 in 10.0 mi WSW 18.4 mph 25.3 mph N/A   Scattered Clouds
5:58 PM 63.5 °F 59.7 °F 87% 30.04 in 10.0 mi WSW 18.4 mph 28.8 mph N/A   Scattered Clouds
6:23 PM 62.6 °F 60.8 °F 94% 30.03 in 10.0 mi WSW 13.8 mph 23.0 mph N/A   Mostly Cloudy
6:43 PM 62.6 °F 60.8 °F 94% 30.02 in 10.0 mi WSW 16.1 mph 19.6 mph N/A   Mostly Cloudy
6:53 PM 62.6 °F 60.8 °F 94% 30.02 in 10.0 mi WSW 12.7 mph - N/A   Mostly Cloudy
6:58 PM 62.2 °F 61.0 °F 96% 30.04 in 10.0 mi WSW 17.3 mph 23.0 mph N/A   Mostly Cloudy
7:33 PM 62.6 °F 60.8 °F 94% 30.02 in 10.0 mi WSW 15.0 mph - N/A   Overcast
7:41 PM 60.8 °F 60.8 °F 100% 30.02 in 10.0 mi SW 18.4 mph - N/A   Overcast
7:42 PM 60.8 °F 60.8 °F 100% 30.02 in 10.0 mi SW 18.4 mph - N/A   Light Drizzle
7:47 PM 60.8 °F 60.8 °F 100% 30.02 in 10.0 mi SW 16.1 mph - N/A   Light Drizzle
7:51 PM 60.8 °F 60.8 °F 100% 30.02 in 10.0 mi WSW 17.3 mph 21.9 mph N/A   Overcast
7:58 PM 60.3 °F 60.3 °F 100% 30.04 in 10.0 mi SW 13.8 mph 21.9 mph 0.00 in   Overcast
8:33 PM 60.8 °F 60.8 °F 100% 30.02 in 10.0 mi SW 13.8 mph - N/A   Overcast
8:54 PM 60.8 °F 60.8 °F 100% 30.03 in 10.0 mi WSW 17.3 mph - N/A   Overcast
8:58 PM 60.4 °F 60.3 °F 99% 30.05 in 10.0 mi SW 13.8 mph - N/A   Overcast
9:58 PM 59.9 °F 59.5 °F 99% 30.06 in 10.0 mi WSW 11.5 mph - N/A   Overcast
10:58 PM 59.4 °F 59.0 °F 99% 30.07 in 10.0 mi SW 9.2 mph - N/A   Overcast
11:58 PM 58.8 °F 58.8 °F 100% 30.06 in 10.0 mi SW 17.3 mph - N/A   Overcast